Regional Weather Roundup
Issued by NWS

Home | Current Version | Previous Version | Graphics & Text | Print | Product List | Glossary On
Versions: 1 2 3 4 5 6 7 8 9 10 11 12 13 14 15 16 17 18 19 20 21 22 23 24 25 26 27 28 29 30 31 32 33 34 35 36 37 38 39 40 41 42 43 44 45 46 47 48 49 50
000
ASUS43 KLOT 311310
RWRIL

ILLINOIS REGIONAL WEATHER ROUNDUP
NATIONAL WEATHER SERVICE CHICAGO/ROMEOVILLE IL
700 AM CST SAT JAN 31 2015

NOTE: "FAIR" INDICATES FEW OR NO CLOUDS BELOW 12,000 FEET WITH NO
SIGNIFICANT WEATHER AND/OR OBSTRUCTIONS TO VISIBILITY.

* THESE STATIONS ARE NOT UNDER NWS QUALITY CONTROL. THEY ALSO MAY NOT
  REPORT WEATHER SUCH AS PRECIPITATION OR FOG.

ILZ001-002-007-009-015-016-024-311400-
NORTHWEST ILLINOIS

CITY           SKY/WX    TMP DP  RH WIND       PRES   REMARKS
MOLINE         MOCLDY    29  20  69 SW7       30.23R WCI  22
STERLING*      MOCLDY    25  18  74 CALM      30.23S
SAVANNA*       PTCLDY    21  18  86 S5        30.22S WCI  15
$$

ILZ003-004-008-010-011-017-018-311400-
NORTH CENTRAL ILLINOIS

CITY           SKY/WX    TMP DP  RH WIND       PRES   REMARKS
ROCKFORD       PTCLDY    22  16  78 S8        30.22F WCI  12
FREEPORT*      PTCLDY    23  18  81 SW13      30.21S WCI  11
ROCHELLE*      PTCLDY    19  16  88 S3        30.23F
DE KALB*       CLOUDY    21  17  86 S8        30.22F WCI  11
PERU*          MOCLDY    27  21  79 SW10      30.26S WCI  17
$$

ILZ005-006-012>014-019>023-311400-
NORTHEAST ILLINOIS

CITY           SKY/WX    TMP DP  RH WIND       PRES   REMARKS
CHICAGO-OHARE  MOCLDY    24  18  77 SW8       30.23F WCI  15
CHICAGO-MIDWAY MOCLDY    26  20  77 SW7       30.26S WCI  18
AURORA         CLOUDY    23  18  81 S7        30.25S WCI  15
LANSING*       CLEAR     23  20  89 S7        30.27F WCI  15
JOLIET*        CLOUDY    25  20  83 S5        30.27S WCI  19
WAUKEGAN       CLOUDY    26  18  71 SW10      30.20F WCI  16
DUPAGE AIRPORT PTCLDY    19  16  88 S5        30.23F WCI  12
KANKAKEE*      PTCLDY    25  22  89 S7        30.29S WCI  17
WHEELING       CLOUDY    26  18  71 SW7       30.25F WCI  18
MORRIS*        MOCLDY    24  22  91 S5        30.26S WCI  19
ROMEOVILLE*    MOCLDY    24  20  85 SW9       30.26S WCI  15
NORTHERLY ISL    N/A     27  20  75 S6          N/A  WCI  21
$$

LMZ740>746-311400-
SOUTHERN LAKE MICHIGAN

STATION/POSITION SKY/WX   TEMP    WIND        PRES    VSBY  WAVE
                          AIR SEA DIR/SP/G                  HT/PER
                          (F)     (DEG/KT/KT) (MB)    (MI)  (FT/S)
WAUKEGAN HARBOR            26     240/ 14/ 20   N/A
HARRISON CRIB              29     230/ 18/ 23   N/A
BURNHAM HARBOR             27     240/  5/ 10   N/A
CALUMET HARBOR             26     210/  6/ 10   N/A
MICHIGAN CITY              24     160/ 12/ 14   N/A
$$

ILZ025>027-034>036-040-047-049-050-058-095>099-311400-
WEST-CENTRAL ILLINOIS

CITY           SKY/WX    TMP DP  RH WIND       PRES   REMARKS
QUINCY         CLOUDY    30  21  69 SW8       30.29R WCI  22
GALESBURG*     CLOUDY    30  24  79 SW12      30.26R WCI  20
MACOMB*        CLOUDY    29  23  76 SW8       30.29S WCI  21
JACKSONVILLE*  CLOUDY    31  23  73 S7        30.31R WCI  24
PITTSFIELD*    CLOUDY    30  22  72 SW3       30.31R
$$

ILZ028>032-037-038-041>044-048-051>054-059>061-311400-
CENTRAL ILLINOIS

CITY           SKY/WX    TMP DP  RH WIND       PRES   REMARKS
PONTIAC        CLOUDY    28  24  83 SW8       30.29R WCI  20
BLOOMINGTON    MOCLDY    26  23  88 SW12      30.29R WCI  16
DECATUR        MOCLDY    28  23  81 SW8       30.32R WCI  20
PEORIA         MOCLDY    26  20  77 SW7       30.29R WCI  18
LACON*         MOCLDY    27  21  78 SW6       30.27R WCI  20
LINCOLN*       MOCLDY    29  24  83 S3        30.32S
SPRINGFIELD    MOCLDY    29  22  75 SW5       30.31S WCI  24
TAYLORVILLE    MOCLDY    28  23  80 S6        30.32R WCI  22
$$

ILZ033-039-045-046-055>057-062-063-311400-
EAST-CENTRAL ILLINOIS

CITY           SKY/WX    TMP DP  RH WIND       PRES   REMARKS
CHAMPAIGN      PTCLDY    26  21  81 S8        30.31S WCI  18
DANVILLE*      CLEAR     23  19  84 S6        30.29S WCI  16
RANTOUL*       PTCLDY    27  23  85 S6        30.30S WCI  20
MATTOON        MOCLDY    27  20  75 S8        30.31F WCI  19
PARIS*         PTCLDY    26  22  85 S8        30.33F WCI  17
$$

ILZ079-100>102-311400-
SOUTHWEST ILLINOIS

CITY           SKY/WX    TMP DP  RH WIND       PRES   REMARKS
ALTON          CLOUDY    27  21  80 S7        30.34R WCI  19
BELLEVILLE     PTCLDY    26  24  90 S1        30.35R
CAHOKIA*       PTCLDY    29  23  78 CALM      30.35R
SPARTA*        PTCLDY    31  22  68 S7        30.36S WCI  25
$$

ILZ064>066-069>071-074>076-080>082-084>086-088>090-092>094-311400-
SOUTH-CENTRAL ILLINOIS

CITY           SKY/WX    TMP DP  RH WIND       PRES   REMARKS
CARBONDALE     MOCLDY    27  23  85 S3        30.37S
CAIRO*         CLOUDY    33  29  85 CALM      30.39R
EFFINGHAM*     MOCLDY    27  19  72 CALM      30.36S
MARION         CLOUDY    30  23  74 SE6       30.38S WCI  24
MT. VERNON     MOCLDY    25  18  74 CALM      30.37R
CENTRALIA*     CLOUDY    29  23  78 S5        30.35S WCI  23
SALEM*         CLOUDY    30  24  77 S6        30.35S WCI  24
METROPOLIS*    MOCLDY    27  26  99 CALM      30.37F
$$

ILZ067-068-072-073-078-083-087-091-311400-
SOUTHEAST ILLINOIS

CITY           SKY/WX    TMP DP  RH WIND       PRES   REMARKS
LAWRENCEVILLE  MOCLDY    24  21  88 CALM      30.38R
FLORA*         PTCLDY    26  22  87 S5        30.37S WCI  20
FAIRFIELD*     MOCLDY    27  23  85 CALM      30.36S
HARRISBURG*    PTCLDY    25  24  98 CALM      30.39S
ROBINSON*      PTCLDY    24  21  89 S3        30.38S
CARMI*         MOCLDY    28  27  96 S3        30.38S
$$

ABBREVIATIONS USED IN REMARKS
   TC - TEMPERATURE IN CELSIUS
  WCI - WIND CHILL INDEX
   HX - HEAT INDEX
  VSB - VISIBILITY
$$



USA.gov is the U.S. government's official web portal to all federal, state and local government web resources and services.